Powrót do katalogu

PEGASUS R/B

AktywnyPO
NORAD 23815·ROCKET BODY·🇺🇸 United States

Wystrzelony Mar 9, 1996 z Vandenberg Space Force Base

Loading…

Następne Przeloty (najbliższe 24 godziny)

TLE

ŚwieżeSource: Space-Track

Epoka: Sep 14, 2026, 03:50 UTC

1 23815U 96014B   26257.16000028  .00000130  00000-0  49833-4 0  9993
2 23815  89.9977 338.7663 0020947 197.5345 162.5128 14.25737159586336

Śledź PEGASUS R/B w czasie rzeczywistym z AllMySat

Download on the App Store